Skip Page Navigation
NASA JPL Caltech
NASA Logo - Jet Propulsion Laboratory + View the NASA Portal
+ Center for Near-Earth Object Studies
JPL Home Earth Solar System Stars & Galaxies Technology
JPL Solar System Dynamics
BODIES ORBITS EPHEMERIDES TOOLS PHYSICAL DATA DISCOVERY FAQ SITE MAP
IMPORTANT: The SSD Announcement email list is now available. Major changes are coming in the near future, including possible hostname and/or URL changes. To be notified of such changes, subscribe to this email list.

Please visit this page for more details.


JPL Small-Body Database Browser
Search: [ help ]  
32462 Janmitchener (2000 SU112)
Classification: Main-belt Asteroid          SPK-ID: 2032462
Ephemeris | Orbit Diagram | Orbital Elements | Mission Design | Physical Parameters | Discovery Circumstances | Close-Approach Data ]

[ show orbit diagram ]
Orbital Elements at Epoch 2458600.5 (2019-Apr-27.0) TDB
Reference: JPL 21 (heliocentric ecliptic J2000)
 Element Value Uncertainty (1-sigma)   Units 
e .1442871375539913 3.7262e-08  
a 3.165846367188788 1.6999e-08 au
q 2.709055456931415 1.1888e-07 au
i .9017105443560011 5.2378e-06 deg
node 166.6740969939949 0.0002699 deg
peri 299.9039987861701 0.00027065 deg
M 38.36016509402717 1.861e-05 deg
tp 2458381.264364830582
(2018-Sep-19.76436483)
0.00010602 TDB
period 2057.4684302722
5.63
1.6571e-05
4.537e-08
d
yr
n .1749723080574182 1.4092e-09 deg/d
Q 3.62263727744616 1.9451e-08 au
  Orbit Determination Parameters
   # obs. used (total)      1154  
   data-arc span      14760 days (40.41 yr)  
   first obs. used      1978-11-29  
   last obs. used      2019-04-28  
   planetary ephem.      DE431  
   SB-pert. ephem.      SB431-N16  
   condition code      0  
   norm. resid. RMS      .51272  
   source      ORB  
   producer      Otto Matic  
   solution date      2019-Jul-13 01:31:56  

Additional Information
 Earth MOID = 1.72621 au 
 Jupiter MOID = 1.51156 au 
 T_jup = 3.187 
[ show covariance matrix ]

Ephemeris | Orbit Diagram | Orbital Elements | Mission Design | Physical Parameters | Discovery Circumstances | Close-Approach Data ]

Physical Parameter Table
Parameter Symbol Value Units Sigma Reference Notes
absolute magnitude H 14.1   n/a MPO435989  
diameter diameter 7.594 km 0.328 urn:nasa:pds:neowise_diameters_albedos::2.0[mainbelt] (http://adsabs.harvard.edu/abs/2011ApJ...741...68M)  
geometric albedo albedo 0.064   0.013 urn:nasa:pds:neowise_diameters_albedos::2.0[mainbelt] (http://adsabs.harvard.edu/abs/2011ApJ...741...68M)  

32462 Janmitchener           Discovered 2000 Sept. 24 by the Lincoln Laboratory Near-Earth Asteroid Research Team at Socorro.
Jan Mitchener mentored a finalist in the 2016 Intel Science Talent Search, a science competition for high school seniors. She teaches at the Carmel High School, Carmel, Indiana.
NOTE: some special characters may not display properly (any characters within {} are an attempt to place the proper accent above a character)
Reference: MPC batch dated 2016-04-22Last Updated: 2016-04-25

[ show close-approach data ]
Alternate Designations
 2000 SU112 = 1978 WS9 = 1980 FT1 = 1997 EW52 = 1999 QH3 
Ephemeris | Orbit Diagram | Orbital Elements | Mission Design | Physical Parameters | Discovery Circumstances | Close-Approach Data ]
ABOUT SSD CREDITS/AWARDS PRIVACY/COPYRIGHT GLOSSARY LINKS
FirstGov
(server date/time)  
NASA Home Page
Site Manager:   Ryan S. Park
Webmaster  Alan B. Chamberlin